Test XHTML 1.0 Strict Page for WU-History Testing
Histórico de la Estación METEOCORUÑA
Diario Datos del Junio 14, 2018 Unidades:  Inglés    Metrico   Ambos
« Prev Dia
Sig Dia »
Diario Semanal Mensual Anual Rango
  Max: Min: Media:
Temp: TemperatureC °F 13.9 °F 16.1 °F
Rocío: DewpointC °F 11.3 °F 13.2 °F
Humedad: Humidity % 69 % 83 %
Vel. viento: WindSpeedKMH mph 0.0 mph 4.5 mph
Racha: WindSpeedGustKMH mph - -
Viento:- - West
Presión: PressurehPa in 1019.7 in -
Lluvia: 0.0 in    
Historical Graphs
 
 
Busqueda de Junio 14, 2018
Hora Temp Rocío Presión Viento Vel. viento Racha Humedad Ratio lluvia (/hora) Radiación
TemperatureC °F DewpointC °F PressurehPa in Calm     Humidity % HourlyPrecipMM in SolarRadiationWatts/m^2 W/m2
00:04 14.6 °F 13.0 °F 1022.8 in NW 4.8 mph 9.7 mph 90 % 0.0 in 0.00 W/m2
00:09 14.6 °F 13.0 °F 1022.7 in NW 4.8 mph 12.9 mph 90 % 0.0 in 0.00 W/m2
00:14 14.6 °F 13.0 °F 1022.7 in WNW 3.2 mph 6.4 mph 90 % 0.0 in 0.00 W/m2
00:19 14.6 °F 13.0 °F 1022.6 in NW 3.2 mph 12.9 mph 90 % 0.0 in 0.00 W/m2
00:24 14.5 °F 12.9 °F 1022.7 in NW 3.2 mph 9.7 mph 90 % 0.0 in 0.00 W/m2
00:29 14.5 °F 12.9 °F 1022.6 in NW 4.8 mph 8.0 mph 90 % 0.0 in 0.00 W/m2
00:34 14.5 °F 12.9 °F 1022.6 in NW 4.8 mph 9.7 mph 90 % 0.0 in 0.00 W/m2
00:39 14.5 °F 12.9 °F 1022.7 in NNW 4.8 mph 9.7 mph 90 % 0.0 in 0.00 W/m2
00:44 14.5 °F 12.9 °F 1022.6 in NNW 3.2 mph 8.0 mph 90 % 0.0 in 0.00 W/m2
00:49 14.6 °F 13.0 °F 1022.6 in NNW 3.2 mph 9.7 mph 90 % 0.0 in 0.00 W/m2
00:54 14.5 °F 12.9 °F 1022.6 in NW 3.2 mph 11.3 mph 90 % 0.0 in 0.00 W/m2
00:59 14.6 °F 13.0 °F 1022.6 in NNW 3.2 mph 6.4 mph 90 % 0.0 in 0.00 W/m2
01:04 14.6 °F 13.0 °F 1022.6 in West 3.2 mph 6.4 mph 90 % 0.0 in 0.00 W/m2
01:09 14.5 °F 12.9 °F 1022.5 in WNW 3.2 mph 11.3 mph 90 % 0.0 in 0.00 W/m2
01:14 14.5 °F 12.9 °F 1022.5 in WNW 3.2 mph 8.0 mph 90 % 0.0 in 0.00 W/m2
01:19 14.5 °F 12.9 °F 1022.5 in WNW 4.8 mph 9.7 mph 90 % 0.0 in 0.00 W/m2
01:24 14.4 °F 12.8 °F 1022.5 in West 3.2 mph 8.0 mph 90 % 0.0 in 0.00 W/m2
01:29 14.4 °F 12.8 °F 1022.5 in WNW 3.2 mph 9.7 mph 90 % 0.0 in 0.00 W/m2
01:34 14.4 °F 12.8 °F 1022.5 in WNW 4.8 mph 11.3 mph 90 % 0.0 in 0.00 W/m2
01:39 14.4 °F 12.8 °F 1022.5 in NW 4.8 mph 9.7 mph 90 % 0.0 in 0.00 W/m2
01:44 14.3 °F 12.7 °F 1022.5 in WNW 6.4 mph 16.1 mph 90 % 0.0 in 0.00 W/m2
01:49 14.4 °F 12.8 °F 1022.4 in NW 6.4 mph 14.5 mph 90 % 0.0 in 0.00 W/m2
01:54 14.3 °F 12.7 °F 1022.3 in WNW 4.8 mph 8.0 mph 90 % 0.0 in 0.00 W/m2
01:58 14.3 °F 12.7 °F 1022.3 in West 4.8 mph 11.3 mph 90 % 0.0 in 0.00 W/m2
02:09 14.3 °F 12.7 °F 1022.3 in WNW 4.8 mph 11.3 mph 90 % 0.0 in 0.00 W/m2
02:14 14.3 °F 12.7 °F 1022.3 in NW 4.8 mph 11.3 mph 90 % 0.0 in 0.00 W/m2
02:19 14.3 °F 12.7 °F 1022.3 in WNW 6.4 mph 14.5 mph 90 % 0.0 in 0.00 W/m2
02:24 14.3 °F 12.7 °F 1022.3 in WNW 6.4 mph 11.3 mph 90 % 0.0 in 0.00 W/m2
02:29 14.3 °F 12.7 °F 1022.2 in WNW 4.8 mph 8.0 mph 90 % 0.0 in 0.00 W/m2
02:34 14.3 °F 12.7 °F 1022.1 in WNW 4.8 mph 9.7 mph 90 % 0.0 in 0.00 W/m2
02:39 14.3 °F 12.7 °F 1022.0 in WNW 3.2 mph 6.4 mph 90 % 0.0 in 0.00 W/m2
02:44 14.3 °F 12.7 °F 1022.0 in NW 3.2 mph 3.2 mph 90 % 0.0 in 0.00 W/m2
02:49 14.3 °F 12.7 °F 1021.9 in NW 1.6 mph 8.0 mph 90 % 0.0 in 0.00 W/m2
02:54 14.3 °F 12.5 °F 1021.9 in NW 3.2 mph 11.3 mph 89 % 0.0 in 0.00 W/m2
02:59 14.3 °F 12.5 °F 1022.0 in WNW 3.2 mph 4.8 mph 89 % 0.0 in 0.00 W/m2
03:04 14.4 °F 12.6 °F 1021.9 in WNW 3.2 mph 6.4 mph 89 % 0.0 in 0.00 W/m2
03:09 14.4 °F 12.6 °F 1021.9 in NW 3.2 mph 6.4 mph 89 % 0.0 in 0.00 W/m2
03:14 14.4 °F 12.6 °F 1021.8 in West 3.2 mph 8.0 mph 89 % 0.0 in 0.00 W/m2
03:19 14.4 °F 12.6 °F 1021.8 in West 3.2 mph 8.0 mph 89 % 0.0 in 0.00 W/m2
03:24 14.4 °F 12.6 °F 1021.7 in WNW 3.2 mph 9.7 mph 89 % 0.0 in 0.00 W/m2
03:29 14.4 °F 12.6 °F 1021.8 in WNW 3.2 mph 6.4 mph 89 % 0.0 in 0.00 W/m2
03:34 14.4 °F 12.6 °F 1021.7 in West 3.2 mph 4.8 mph 89 % 0.0 in 0.00 W/m2
03:39 14.4 °F 12.6 °F 1021.6 in West 1.6 mph 4.8 mph 89 % 0.0 in 0.00 W/m2
03:44 14.3 °F 12.5 °F 1021.6 in West 1.6 mph 6.4 mph 89 % 0.0 in 0.00 W/m2
03:49 14.3 °F 12.5 °F 1021.6 in NW 1.6 mph 9.7 mph 89 % 0.0 in 0.00 W/m2
03:54 14.3 °F 12.5 °F 1021.6 in NW 3.2 mph 6.4 mph 89 % 0.0 in 0.00 W/m2
03:59 14.3 °F 12.5 °F 1021.7 in NW 1.6 mph 4.8 mph 89 % 0.0 in 0.00 W/m2
04:04 14.3 °F 12.5 °F 1021.6 in WNW 1.6 mph 8.0 mph 89 % 0.0 in 0.00 W/m2
04:09 14.3 °F 12.5 °F 1021.6 in West 1.6 mph 8.0 mph 89 % 0.0 in 0.00 W/m2
04:14 14.2 °F 12.2 °F 1021.5 in WNW 1.6 mph 11.3 mph 88 % 0.0 in 0.00 W/m2
04:19 14.3 °F 12.3 °F 1021.4 in WNW 3.2 mph 9.7 mph 88 % 0.0 in 0.00 W/m2
04:24 14.3 °F 12.3 °F 1021.4 in WNW 4.8 mph 8.0 mph 88 % 0.0 in 0.00 W/m2
04:29 14.2 °F 12.2 °F 1021.3 in WNW 3.2 mph 8.0 mph 88 % 0.0 in 0.00 W/m2
04:34 14.3 °F 12.3 °F 1021.4 in West 3.2 mph 8.0 mph 88 % 0.0 in 0.00 W/m2
04:39 14.3 °F 12.3 °F 1021.3 in NW 3.2 mph 9.7 mph 88 % 0.0 in 0.00 W/m2
04:44 14.3 °F 12.3 °F 1021.3 in WNW 4.8 mph 11.3 mph 88 % 0.0 in 0.00 W/m2
04:49 14.2 °F 12.2 °F 1021.2 in WNW 4.8 mph 12.9 mph 88 % 0.0 in 0.00 W/m2
04:54 14.2 °F 12.2 °F 1021.1 in WNW 6.4 mph 12.9 mph 88 % 0.0 in 0.00 W/m2
04:59 14.2 °F 12.2 °F 1021.0 in WNW 6.4 mph 8.0 mph 88 % 0.0 in 0.00 W/m2
05:04 14.2 °F 12.2 °F 1020.9 in WNW 4.8 mph 6.4 mph 88 % 0.0 in 0.00 W/m2
05:09 14.1 °F 12.2 °F 1020.9 in WNW 4.8 mph 9.7 mph 88 % 0.0 in 0.00 W/m2
05:14 14.2 °F 12.2 °F 1020.9 in WNW 4.8 mph 8.0 mph 88 % 0.0 in 0.00 W/m2
05:19 14.1 °F 12.2 °F 1020.9 in WNW 4.8 mph 11.3 mph 88 % 0.0 in 0.00 W/m2
05:24 14.1 °F 11.9 °F 1020.8 in WNW 4.8 mph 9.7 mph 87 % 0.0 in 0.00 W/m2
05:29 14.1 °F 11.9 °F 1020.7 in WNW 6.4 mph 9.7 mph 87 % 0.0 in 0.00 W/m2
05:34 14.1 °F 11.9 °F 1020.7 in WNW 6.4 mph 9.7 mph 87 % 0.0 in 0.00 W/m2
05:39 14.2 °F 12.1 °F 1020.6 in WNW 4.8 mph 9.7 mph 87 % 0.0 in 0.00 W/m2
05:44 14.2 °F 12.1 °F 1020.7 in NW 4.8 mph 8.0 mph 87 % 0.0 in 0.00 W/m2
05:49 14.2 °F 12.1 °F 1020.8 in NW 3.2 mph 8.0 mph 87 % 0.0 in 0.00 W/m2
05:54 14.1 °F 11.9 °F 1020.7 in WNW 3.2 mph 6.4 mph 87 % 0.0 in 0.00 W/m2
05:59 14.2 °F 12.1 °F 1020.7 in WNW 4.8 mph 8.0 mph 87 % 0.0 in 0.00 W/m2
06:04 14.2 °F 12.1 °F 1020.7 in WNW 3.2 mph 6.4 mph 87 % 0.0 in 0.00 W/m2
06:09 14.2 °F 11.9 °F 1020.8 in WNW 3.2 mph 6.4 mph 86 % 0.0 in 0.00 W/m2
06:14 14.1 °F 11.8 °F 1020.8 in West 3.2 mph 6.4 mph 86 % 0.0 in 0.00 W/m2
06:19 14.1 °F 11.8 °F 1020.8 in West 1.6 mph 6.4 mph 86 % 0.0 in 0.00 W/m2
06:24 14.1 °F 11.8 °F 1020.8 in West 1.6 mph 6.4 mph 86 % 0.0 in 0.00 W/m2
06:29 14.1 °F 11.8 °F 1020.8 in West 3.2 mph 4.8 mph 86 % 0.0 in 0.00 W/m2
06:34 14.1 °F 11.8 °F 1020.7 in West 3.2 mph 6.4 mph 86 % 0.0 in 0.00 W/m2
06:39 14.1 °F 11.6 °F 1020.8 in West 1.6 mph 3.2 mph 85 % 0.0 in 0.00 W/m2
06:44 14.1 °F 11.6 °F 1020.8 in West 1.6 mph 3.2 mph 85 % 0.0 in 5.00 W/m2
06:49 14.1 °F 11.6 °F 1020.7 in Calm   4.8 mph 85 % 0.0 in 5.00 W/m2
06:54 14.1 °F 11.4 °F 1020.7 in West 1.6 mph 1.6 mph 84 % 0.0 in 7.00 W/m2
06:59 14.0 °F 11.3 °F 1020.7 in Calm   1.6 mph 84 % 0.0 in 9.00 W/m2
07:04 14.0 °F 11.3 °F 1020.7 in Calm   1.6 mph 84 % 0.0 in 12.00 W/m2
07:09 13.9 °F 11.4 °F 1020.8 in Calm   3.2 mph 85 % 0.0 in 16.00 W/m2
07:14 13.9 °F 11.4 °F 1020.8 in Calm   3.2 mph 85 % 0.0 in 21.00 W/m2
07:19 13.9 °F 11.4 °F 1020.8 in Calm   3.2 mph 85 % 0.0 in 26.00 W/m2
07:24 14.0 °F 11.5 °F 1020.8 in Calm   3.2 mph 85 % 0.0 in 30.00 W/m2
07:29 14.1 °F 11.4 °F 1020.7 in West 1.6 mph 3.2 mph 84 % 0.0 in 33.00 W/m2
07:34 14.2 °F 11.6 °F 1020.8 in Calm   1.6 mph 84 % 0.0 in 33.00 W/m2
07:39 14.2 °F 11.6 °F 1020.8 in Calm   1.6 mph 84 % 0.0 in 32.00 W/m2
07:44 14.3 °F 11.6 °F 1020.8 in Calm   3.2 mph 84 % 0.0 in 32.00 W/m2
07:49 14.2 °F 11.3 °F 1020.8 in Calm   1.6 mph 83 % 0.0 in 32.00 W/m2
07:54 14.2 °F 11.3 °F 1020.9 in Calm   1.6 mph 83 % 0.0 in 35.00 W/m2
07:59 14.3 °F 11.6 °F 1020.9 in Calm   1.6 mph 84 % 0.0 in 37.00 W/m2
08:04 14.4 °F 11.6 °F 1020.9 in Calm   3.2 mph 83 % 0.0 in 39.00 W/m2
08:09 14.6 °F 11.9 °F 1020.9 in Calm   1.6 mph 84 % 0.0 in 39.00 W/m2
08:14 14.8 °F 11.9 °F 1021.0 in Calm   1.6 mph 83 % 0.0 in 40.00 W/m2
08:19 15.1 °F 12.2 °F 1021.0 in Calm   3.2 mph 83 % 0.0 in 40.00 W/m2
08:24 15.1 °F 12.1 °F 1021.0 in Calm   1.6 mph 82 % 0.0 in 44.00 W/m2
08:29 15.3 °F 12.2 °F 1021.0 in Calm   1.6 mph 82 % 0.0 in 47.00 W/m2
08:34 15.2 °F 11.9 °F 1021.0 in West 1.6 mph 4.8 mph 81 % 0.0 in 62.00 W/m2
08:39 15.3 °F 12.1 °F 1021.1 in West 1.6 mph 6.4 mph 81 % 0.0 in 137.00 W/m2
08:44 15.2 °F 11.9 °F 1021.1 in West 1.6 mph 6.4 mph 81 % 0.0 in 135.00 W/m2
08:49 15.1 °F 11.9 °F 1021.1 in West 3.2 mph 4.8 mph 81 % 0.0 in 141.00 W/m2
08:54 15.2 °F 11.9 °F 1021.1 in West 1.6 mph 1.6 mph 81 % 0.0 in 156.00 W/m2
08:59 15.3 °F 12.1 °F 1021.1 in Calm   3.2 mph 81 % 0.0 in 163.00 W/m2
09:04 15.8 °F 12.7 °F 1021.2 in Calm     82 % 0.0 in 199.00 W/m2
09:09 16.2 °F 12.9 °F 1021.1 in Calm   1.6 mph 81 % 0.0 in 193.00 W/m2
09:14 16.4 °F 12.9 °F 1021.1 in Calm   1.6 mph 80 % 0.0 in 220.00 W/m2
09:19 16.4 °F 12.7 °F 1021.1 in Calm   3.2 mph 79 % 0.0 in 274.00 W/m2
09:24 16.2 °F 12.6 °F 1021.1 in Calm   3.2 mph 79 % 0.0 in 241.00 W/m2
09:29 16.3 °F 12.8 °F 1021.1 in West 1.6 mph 3.2 mph 80 % 0.0 in 404.00 W/m2
09:34 16.5 °F 12.8 °F 1021.0 in West 1.6 mph 1.6 mph 79 % 0.0 in 403.00 W/m2
09:39 16.7 °F 12.8 °F 1021.1 in Calm   3.2 mph 78 % 0.0 in 411.00 W/m2
09:44 16.9 °F 12.8 °F 1021.1 in Calm   4.8 mph 77 % 0.0 in 366.00 W/m2
09:49 17.2 °F 13.1 °F 1021.2 in NNW 1.6 mph 3.2 mph 77 % 0.0 in 439.00 W/m2
09:54 16.9 °F 12.4 °F 1021.0 in NE 1.6 mph 6.4 mph 75 % 0.0 in 450.00 W/m2
09:59 16.9 °F 12.8 °F 1021.0 in ENE 1.6 mph 8.0 mph 77 % 0.0 in 462.00 W/m2
10:04 17.1 °F 12.8 °F 1021.0 in ENE 3.2 mph 4.8 mph 76 % 0.0 in 459.00 W/m2
10:09 17.5 °F 13.2 °F 1021.0 in ENE 1.6 mph 3.2 mph 76 % 0.0 in 459.00 W/m2
10:14 17.8 °F 13.3 °F 1021.0 in ENE 1.6 mph 4.8 mph 75 % 0.0 in 457.00 W/m2
10:19 18.2 °F 13.5 °F 1021.0 in Calm   8.0 mph 74 % 0.0 in 482.00 W/m2
10:24 18.2 °F 13.3 °F 1021.0 in East 1.6 mph 8.0 mph 73 % 0.0 in 492.00 W/m2
10:29 18.2 °F 13.3 °F 1021.0 in East 1.6 mph 8.0 mph 73 % 0.0 in 522.00 W/m2
10:34 18.3 °F 13.2 °F 1020.9 in East 1.6 mph 8.0 mph 72 % 0.0 in 541.00 W/m2
10:39 17.9 °F 12.6 °F 1020.9 in ESE 3.2 mph 8.0 mph 71 % 0.0 in 559.00 W/m2
10:44 17.8 °F 13.1 °F 1020.9 in East 3.2 mph 11.3 mph 74 % 0.0 in 564.00 W/m2
10:49 17.8 °F 12.9 °F 1021.0 in East 3.2 mph 4.8 mph 73 % 0.0 in 594.00 W/m2
10:54 17.9 °F 12.8 °F 1021.0 in East 3.2 mph 12.9 mph 72 % 0.0 in 446.00 W/m2
10:59 17.7 °F 12.8 °F 1020.9 in East 3.2 mph 11.3 mph 73 % 0.0 in 601.00 W/m2
11:04 17.9 °F 13.0 °F 1020.9 in East 4.8 mph 8.0 mph 73 % 0.0 in 619.00 W/m2
11:09 18.1 °F 12.9 °F 1020.8 in East 3.2 mph 4.8 mph 72 % 0.0 in 631.00 W/m2
11:14 18.4 °F 13.4 °F 1020.9 in East 3.2 mph 4.8 mph 73 % 0.0 in 643.00 W/m2
11:19 18.8 °F 13.7 °F 1020.8 in East 1.6 mph 4.8 mph 72 % 0.0 in 656.00 W/m2
11:24 19.0 °F 13.4 °F 1020.7 in East 1.6 mph 8.0 mph 70 % 0.0 in 666.00 W/m2
11:29 19.2 °F 13.6 °F 1020.8 in SSE 1.6 mph 6.4 mph 70 % 0.0 in 675.00 W/m2
11:34 19.4 °F 13.8 °F 1020.8 in WSW 1.6 mph 8.0 mph 70 % 0.0 in 687.00 W/m2
11:39 19.2 °F 13.4 °F 1020.7 in West 1.6 mph 3.2 mph 69 % 0.0 in 698.00 W/m2
11:44 19.1 °F 13.3 °F 1020.7 in West 1.6 mph 6.4 mph 69 % 0.0 in 707.00 W/m2
11:49 19.1 °F 13.5 °F 1020.7 in West 1.6 mph 6.4 mph 70 % 0.0 in 717.00 W/m2
11:54 19.0 °F 13.4 °F 1020.8 in West 3.2 mph 6.4 mph 70 % 0.0 in 728.00 W/m2
11:59 19.0 °F 13.4 °F 1020.8 in West 1.6 mph 9.7 mph 70 % 0.0 in 733.00 W/m2
12:04 18.3 °F 13.2 °F 1020.9 in West 3.2 mph 11.3 mph 72 % 0.0 in 742.00 W/m2
12:09 18.0 °F 13.3 °F 1020.9 in WNW 4.8 mph 6.4 mph 74 % 0.0 in 751.00 W/m2
12:14 17.8 °F 13.3 °F 1020.9 in WNW 4.8 mph 8.0 mph 75 % 0.0 in 759.00 W/m2
12:19 17.4 °F 12.9 °F 1021.0 in West 4.8 mph 14.5 mph 75 % 0.0 in 754.00 W/m2
12:24 17.4 °F 13.3 °F 1021.0 in West 6.4 mph 8.0 mph 77 % 0.0 in 729.00 W/m2
12:29 17.4 °F 13.3 °F 1021.0 in West 4.8 mph 8.0 mph 77 % 0.0 in 694.00 W/m2
12:34 17.4 °F 13.1 °F 1021.0 in NW 4.8 mph 9.7 mph 76 % 0.0 in 657.00 W/m2
12:39 17.6 °F 13.3 °F 1021.0 in WNW 4.8 mph 9.7 mph 76 % 0.0 in 640.00 W/m2
12:44 17.7 °F 13.2 °F 1021.0 in WNW 4.8 mph 8.0 mph 75 % 0.0 in 649.00 W/m2
12:49 17.8 °F 13.1 °F 1020.9 in West 4.8 mph 9.7 mph 74 % 0.0 in 684.00 W/m2
12:54 17.7 °F 13.0 °F 1020.9 in West 4.8 mph 12.9 mph 74 % 0.0 in 742.00 W/m2
12:59 17.6 °F 13.1 °F 1020.9 in WNW 6.4 mph 9.7 mph 75 % 0.0 in 800.00 W/m2
13:04 17.7 °F 13.2 °F 1020.9 in WNW 6.4 mph 12.9 mph 75 % 0.0 in 830.00 W/m2
13:09 17.6 °F 13.1 °F 1020.8 in NW 6.4 mph 11.3 mph 75 % 0.0 in 838.00 W/m2
13:14 17.5 °F 13.0 °F 1020.8 in WNW 6.4 mph 11.3 mph 75 % 0.0 in 840.00 W/m2
13:19 17.3 °F 12.8 °F 1020.8 in West 6.4 mph 14.5 mph 75 % 0.0 in 846.00 W/m2
13:24 17.2 °F 12.9 °F 1020.8 in WNW 8.0 mph 14.5 mph 76 % 0.0 in 851.00 W/m2
13:29 17.3 °F 13.2 °F 1020.9 in NW 8.0 mph 16.1 mph 77 % 0.0 in 856.00 W/m2
13:34 17.1 °F 12.8 °F 1020.9 in West 8.0 mph 14.5 mph 76 % 0.0 in 860.00 W/m2
13:39 17.3 °F 13.2 °F 1020.8 in West 8.0 mph 12.9 mph 77 % 0.0 in 863.00 W/m2
13:44 17.2 °F 12.9 °F 1020.7 in West 8.0 mph 14.5 mph 76 % 0.0 in 867.00 W/m2
13:49 17.1 °F 13.1 °F 1020.8 in West 9.7 mph 16.1 mph 77 % 0.0 in 868.00 W/m2
13:54 16.9 °F 12.7 °F 1020.7 in WNW 11.3 mph 16.1 mph 76 % 0.0 in 872.00 W/m2
13:59 17.1 °F 12.8 °F 1020.7 in West 9.7 mph 16.1 mph 76 % 0.0 in 875.00 W/m2
14:04 17.2 °F 13.1 °F 1020.6 in NW 8.0 mph 8.0 mph 77 % 0.0 in 877.00 W/m2
14:09 17.3 °F 13.0 °F 1020.5 in West 6.4 mph 12.9 mph 76 % 0.0 in 879.00 W/m2
14:14 17.5 °F 13.2 °F 1020.5 in WNW 6.4 mph 8.0 mph 76 % 0.0 in 879.00 W/m2
14:19 17.9 °F 13.2 °F 1020.5 in West 6.4 mph 11.3 mph 74 % 0.0 in 882.00 W/m2
14:24 18.1 °F 13.4 °F 1020.5 in West 4.8 mph 14.5 mph 74 % 0.0 in 884.00 W/m2
14:29 17.3 °F 12.6 °F 1020.5 in West 8.0 mph 17.7 mph 74 % 0.0 in 877.00 W/m2
14:34 17.1 °F 12.8 °F 1020.5 in West 11.3 mph 14.5 mph 76 % 0.0 in 865.00 W/m2
14:39 17.2 °F 12.9 °F 1020.4 in West 11.3 mph 17.7 mph 76 % 0.0 in 860.00 W/m2
14:44 17.0 °F 12.6 °F 1020.5 in West 12.9 mph 17.7 mph 75 % 0.0 in 861.00 W/m2
14:49 16.8 °F 12.7 °F 1020.5 in West 14.5 mph 19.3 mph 77 % 0.0 in 870.00 W/m2
14:54 16.8 °F 12.7 °F 1020.4 in West 14.5 mph 17.7 mph 77 % 0.0 in 877.00 W/m2
14:59 16.9 °F 12.7 °F 1020.4 in West 12.9 mph 17.7 mph 76 % 0.0 in 879.00 W/m2
15:04 16.8 °F 12.6 °F 1020.4 in West 12.9 mph 19.3 mph 76 % 0.0 in 875.00 W/m2
15:09 16.9 °F 12.4 °F 1020.4 in West 14.5 mph 17.7 mph 75 % 0.0 in 874.00 W/m2
15:14 17.2 °F 12.9 °F 1020.5 in West 12.9 mph 16.1 mph 76 % 0.0 in 872.00 W/m2
15:19 17.6 °F 13.1 °F 1020.5 in West 11.3 mph 17.7 mph 75 % 0.0 in 870.00 W/m2
15:24 17.9 °F 13.4 °F 1020.5 in West 8.0 mph 14.5 mph 75 % 0.0 in 868.00 W/m2
15:29 18.2 °F 13.7 °F 1020.5 in West 6.4 mph 12.9 mph 75 % 0.0 in 865.00 W/m2
15:34 18.2 °F 13.3 °F 1020.5 in West 6.4 mph 17.7 mph 73 % 0.0 in 861.00 W/m2
15:39 17.4 °F 12.9 °F 1020.5 in West 9.7 mph 16.1 mph 75 % 0.0 in 858.00 W/m2
15:44 17.2 °F 12.9 °F 1020.4 in West 11.3 mph 16.1 mph 76 % 0.0 in 853.00 W/m2
15:49 16.9 °F 12.7 °F 1020.4 in West 11.3 mph 16.1 mph 76 % 0.0 in 846.00 W/m2
15:54 16.9 °F 13.1 °F 1020.4 in West 12.9 mph 14.5 mph 78 % 0.0 in 840.00 W/m2
15:59 16.9 °F 13.1 °F 1020.4 in West 11.3 mph 14.5 mph 78 % 0.0 in 837.00 W/m2
16:04 16.8 °F 12.7 °F 1020.3 in West 11.3 mph 16.1 mph 77 % 0.0 in 831.00 W/m2
16:09 17.1 °F 13.1 °F 1020.3 in West 11.3 mph 14.5 mph 77 % 0.0 in 826.00 W/m2
16:14 17.2 °F 13.1 °F 1020.3 in West 11.3 mph 16.1 mph 77 % 0.0 in 819.00 W/m2
16:19 17.3 °F 13.2 °F 1020.4 in West 11.3 mph 16.1 mph 77 % 0.0 in 812.00 W/m2
16:24 17.4 °F 13.3 °F 1020.4 in West 11.3 mph 17.7 mph 77 % 0.0 in 805.00 W/m2
16:29 17.4 °F 13.3 °F 1020.4 in West 9.7 mph 16.1 mph 77 % 0.0 in 798.00 W/m2
16:34 17.5 °F 13.6 °F 1020.3 in West 9.7 mph 17.7 mph 78 % 0.0 in 791.00 W/m2
16:39 17.3 °F 13.6 °F 1020.3 in West 11.3 mph 19.3 mph 79 % 0.0 in 784.00 W/m2
16:44 17.2 °F 13.5 °F 1020.2 in West 12.9 mph 19.3 mph 79 % 0.0 in 775.00 W/m2
16:49 17.3 °F 13.8 °F 1020.2 in WNW 11.3 mph 14.5 mph 80 % 0.0 in 766.00 W/m2
16:54 17.7 °F 14.4 °F 1020.3 in WNW 8.0 mph 12.9 mph 81 % 0.0 in 759.00 W/m2
16:59 17.9 °F 14.4 °F 1020.3 in West 6.4 mph 8.0 mph 80 % 0.0 in 751.00 W/m2
17:04 18.1 °F 14.6 °F 1020.2 in WNW 4.8 mph 12.9 mph 80 % 0.0 in 742.00 W/m2
17:09 17.5 °F 14.0 °F 1020.1 in West 6.4 mph 17.7 mph 80 % 0.0 in 731.00 W/m2
17:14 17.4 °F 14.3 °F 1020.1 in West 9.7 mph 12.9 mph 82 % 0.0 in 724.00 W/m2
17:19 17.6 °F 14.5 °F 1020.1 in WNW 9.7 mph 9.7 mph 82 % 0.0 in 714.00 W/m2
17:24 17.9 °F 14.8 °F 1020.1 in West 4.8 mph 9.7 mph 82 % 0.0 in 705.00 W/m2
17:29 18.3 °F 15.0 °F 1020.0 in WNW 3.2 mph 8.0 mph 81 % 0.0 in 696.00 W/m2
17:34 17.9 °F 14.2 °F 1020.1 in West 4.8 mph 16.1 mph 79 % 0.0 in 684.00 W/m2
17:39 17.8 °F 14.5 °F 1020.1 in West 8.0 mph 16.1 mph 81 % 0.0 in 671.00 W/m2
17:44 17.7 °F 14.4 °F 1020.1 in WSW 8.0 mph 14.5 mph 81 % 0.0 in 659.00 W/m2
17:49 17.5 °F 14.4 °F 1020.1 in West 8.0 mph 16.1 mph 82 % 0.0 in 650.00 W/m2
17:54 17.4 °F 14.3 °F 1020.2 in West 9.7 mph 14.5 mph 82 % 0.0 in 638.00 W/m2
17:59 17.5 °F 14.6 °F 1020.1 in West 9.7 mph 11.3 mph 83 % 0.0 in 626.00 W/m2
18:04 17.8 °F 14.9 °F 1020.1 in West 8.0 mph 9.7 mph 83 % 0.0 in 615.00 W/m2
18:09 18.1 °F 15.0 °F 1020.0 in West 4.8 mph 9.7 mph 82 % 0.0 in 603.00 W/m2
18:14 18.3 °F 14.8 °F 1020.0 in West 4.8 mph 11.3 mph 80 % 0.0 in 591.00 W/m2
18:19 18.2 °F 14.7 °F 1020.0 in West 4.8 mph 12.9 mph 80 % 0.0 in 580.00 W/m2
18:24 17.9 °F 14.6 °F 1020.0 in West 8.0 mph 11.3 mph 81 % 0.0 in 568.00 W/m2
18:29 18.0 °F 14.9 °F 1020.0 in West 8.0 mph 11.3 mph 82 % 0.0 in 554.00 W/m2
18:34 17.9 °F 14.8 °F 1020.1 in West 8.0 mph 12.9 mph 82 % 0.0 in 545.00 W/m2
18:39 18.0 °F 15.1 °F 1020.1 in West 8.0 mph 14.5 mph 83 % 0.0 in 577.00 W/m2
18:44 17.6 °F 14.7 °F 1020.1 in West 8.0 mph 16.1 mph 83 % 0.0 in 454.00 W/m2
18:49 17.3 °F 14.6 °F 1020.1 in West 9.7 mph 14.5 mph 84 % 0.0 in 510.00 W/m2
18:54 17.1 °F 14.6 °F 1020.0 in West 9.7 mph 16.1 mph 85 % 0.0 in 466.00 W/m2
18:59 17.0 °F 14.7 °F 1019.9 in West 12.9 mph 12.9 mph 86 % 0.0 in 469.00 W/m2
19:04 17.3 °F 15.1 °F 1019.9 in West 9.7 mph 4.8 mph 87 % 0.0 in 461.00 W/m2
19:09 17.8 °F 15.4 °F 1019.9 in West 4.8 mph 9.7 mph 86 % 0.0 in 448.00 W/m2
19:14 18.1 °F 15.6 °F 1019.9 in WNW 3.2 mph 6.4 mph 85 % 0.0 in 436.00 W/m2
19:19 18.1 °F 15.3 °F 1019.8 in West 3.2 mph 9.7 mph 84 % 0.0 in 422.00 W/m2
19:24 18.1 °F 15.3 °F 1019.8 in West 4.8 mph 9.7 mph 84 % 0.0 in 408.00 W/m2
19:29 18.1 °F 15.3 °F 1019.8 in WNW 4.8 mph 11.3 mph 84 % 0.0 in 394.00 W/m2
19:34 17.8 °F 14.9 °F 1019.8 in West 6.4 mph 12.9 mph 83 % 0.0 in 394.00 W/m2
19:39 17.4 °F 14.7 °F 1019.7 in West 8.0 mph 12.9 mph 84 % 0.0 in 369.00 W/m2
19:44 17.3 °F 14.9 °F 1019.8 in West 9.7 mph 12.9 mph 86 % 0.0 in 346.00 W/m2
19:49 17.2 °F 14.8 °F 1019.9 in West 9.7 mph 11.3 mph 86 % 0.0 in 380.00 W/m2
19:54 17.2 °F 14.8 °F 1019.8 in WNW 6.4 mph 12.9 mph 86 % 0.0 in 246.00 W/m2
19:59 17.2 °F 14.8 °F 1019.8 in WNW 6.4 mph 9.7 mph 86 % 0.0 in 190.00 W/m2
20:04 17.2 °F 14.8 °F 1019.8 in NNW 4.8 mph 6.4 mph 86 % 0.0 in 149.00 W/m2
20:09 17.2 °F 14.8 °F 1019.9 in West 4.8 mph 9.7 mph 86 % 0.0 in 132.00 W/m2
20:14 17.2 °F 15.0 °F 1019.9 in West 3.2 mph 9.7 mph 87 % 0.0 in 127.00 W/m2
20:19 17.1 °F 14.9 °F 1019.8 in NW 3.2 mph 8.0 mph 87 % 0.0 in 132.00 W/m2
20:24 16.8 °F 14.6 °F 1019.8 in West 4.8 mph 11.3 mph 87 % 0.0 in 121.00 W/m2
20:29 16.6 °F 14.6 °F 1019.8 in West 6.4 mph 8.0 mph 88 % 0.0 in 109.00 W/m2
20:34 16.7 °F 14.7 °F 1019.8 in West 4.8 mph 3.2 mph 88 % 0.0 in 109.00 W/m2
20:39 16.7 °F 14.7 °F 1019.8 in West 3.2 mph 9.7 mph 88 % 0.0 in 107.00 W/m2
20:44 16.4 °F 14.4 °F 1019.8 in West 4.8 mph 9.7 mph 88 % 0.0 in 83.00 W/m2
20:49 16.3 °F 14.5 °F 1019.9 in West 6.4 mph 11.3 mph 89 % 0.0 in 54.00 W/m2
20:54 16.3 °F 14.5 °F 1020.0 in West 6.4 mph 8.0 mph 89 % 0.0 in 56.00 W/m2
20:59 16.2 °F 14.4 °F 1020.0 in West 6.4 mph 12.9 mph 89 % 0.0 in 46.00 W/m2
21:04 16.1 °F 14.3 °F 1020.0 in West 8.0 mph 11.3 mph 89 % 0.0 in 63.00 W/m2
21:09 16.1 °F 14.4 °F 1020.0 in West 8.0 mph 8.0 mph 90 % 0.0 in 47.00 W/m2
21:14 16.1 °F 14.4 °F 1020.1 in West 4.8 mph 9.7 mph 90 % 0.0 in 35.00 W/m2
21:19 16.2 °F 14.6 °F 1020.1 in NW 3.2 mph 6.4 mph 90 % 0.0 in 28.00 W/m2
21:24 16.1 °F 14.4 °F 1020.1 in West 3.2 mph 9.7 mph 90 % 0.0 in 19.00 W/m2
21:29 16.0 °F 14.6 °F 1020.1 in West 4.8 mph 9.7 mph 91 % 0.0 in 19.00 W/m2
21:34 15.9 °F 14.4 °F 1020.0 in West 6.4 mph 8.0 mph 91 % 0.0 in 14.00 W/m2
21:39 15.9 °F 14.4 °F 1020.1 in West 4.8 mph 6.4 mph 91 % 0.0 in 12.00 W/m2
21:44 16.0 °F 14.6 °F 1020.1 in West 3.2 mph 6.4 mph 91 % 0.0 in 18.00 W/m2
21:49 16.1 °F 14.6 °F 1020.0 in West 1.6 mph 4.8 mph 91 % 0.0 in 16.00 W/m2
21:54 16.1 °F 14.6 °F 1020.0 in West 1.6 mph 4.8 mph 91 % 0.0 in 14.00 W/m2
21:59 16.1 °F 14.8 °F 1019.9 in West 1.6 mph 3.2 mph 92 % 0.0 in 7.00 W/m2
22:04 16.0 °F 14.7 °F 1020.0 in West 1.6 mph 4.8 mph 92 % 0.0 in 5.00 W/m2
22:09 16.0 °F 14.7 °F 1020.0 in West 1.6 mph 3.2 mph 92 % 0.0 in 5.00 W/m2
22:14 16.0 °F 14.7 °F 1019.9 in Calm   1.6 mph 92 % 0.0 in 0.00 W/m2
22:19 16.0 °F 14.7 °F 1019.9 in Calm   3.2 mph 92 % 0.0 in 0.00 W/m2
22:24 16.0 °F 14.7 °F 1019.9 in Calm   1.6 mph 92 % 0.0 in 0.00 W/m2
22:29 16.0 °F 14.7 °F 1020.0 in Calm   4.8 mph 92 % 0.0 in 0.00 W/m2
22:34 16.0 °F 14.7 °F 1020.0 in Calm   3.2 mph 92 % 0.0 in 0.00 W/m2
22:39 15.9 °F 14.8 °F 1020.0 in Calm   4.8 mph 93 % 0.0 in 0.00 W/m2
22:44 15.9 °F 14.8 °F 1020.1 in West 1.6 mph 3.2 mph 93 % 0.0 in 0.00 W/m2
22:49 15.9 °F 14.8 °F 1020.1 in West 1.6 mph 1.6 mph 93 % 0.0 in 0.00 W/m2
22:54 15.9 °F 14.8 °F 1020.1 in Calm   3.2 mph 93 % 0.0 in 0.00 W/m2
22:59 15.9 °F 14.8 °F 1020.2 in Calm   1.6 mph 93 % 0.0 in 0.00 W/m2
23:04 15.9 °F 14.8 °F 1020.2 in Calm   3.2 mph 93 % 0.0 in 0.00 W/m2
23:09 15.9 °F 14.9 °F 1020.2 in West 1.6 mph 4.8 mph 94 % 0.0 in 0.00 W/m2
23:14 15.9 °F 14.9 °F 1020.3 in West 1.6 mph 3.2 mph 94 % 0.0 in 0.00 W/m2
23:19 15.9 °F 14.9 °F 1020.2 in West 1.6 mph 3.2 mph 94 % 0.0 in 0.00 W/m2
23:24 15.9 °F 14.9 °F 1020.3 in West 1.6 mph 6.4 mph 94 % 0.0 in 0.00 W/m2
23:29 15.9 °F 14.9 °F 1020.3 in Calm   1.6 mph 94 % 0.0 in 0.00 W/m2
23:34 15.9 °F 14.9 °F 1020.3 in Calm   1.6 mph 94 % 0.0 in 0.00 W/m2
23:39 15.9 °F 14.9 °F 1020.3 in Calm   3.2 mph 94 % 0.0 in 0.00 W/m2
23:44 15.9 °F 14.9 °F 1020.3 in Calm   3.2 mph 94 % 0.0 in 0.00 W/m2
23:49 15.9 °F 14.9 °F 1020.3 in Calm   1.6 mph 94 % 0.0 in 0.00 W/m2
23:54 15.9 °F 14.9 °F 1020.3 in Calm   3.2 mph 94 % 0.0 in 0.00 W/m2
23:59 15.9 °F 14.9 °F 1020.3 in Calm   1.6 mph 94 % 0.0 in 0.00 W/m2
Meteocoruña
Agradecimientos a Weather Underground - 3 mb